Regional Weather Roundup
Issued by NWS Midland/Odessa, TX

Skip options and go directly to product.
Home | Oldest Version | Next Version | Current Version | All | Text Only | Save Text | Print | Product List | Glossary On

Skip product version selection by date and time.   
770
ASUS44 KMAF 290010
RWRMAF
MIDLAND AREA WEATHER ROUNDUP
NATIONAL WEATHER SERVICE MIDLAND TX
700 PM CDT TUE JUL 28 2015

...IN SOUTHWEST TEXAS AND SOUTHEAST NEW MEXICO...

CITY           SKY/WX    TMP DP  RH WIND       PRES   REMARKS
ALPINE         PTSUNNY   82  59  46 W6        30.07F
ANDREWS        FAIR      99  55  22 SE10G17   29.92S
ARTESIA        MOSUNNY   95  54  24 NW15      29.94S
BIG SPRING     SUNNY     96  54  24 SE14      29.91F
CARLSBAD       MOSUNNY  103  48  15 E15       29.88S
DRYDEN           N/A     98  63  31 SE9       29.86F HX 100
FORT STOCKTON  MOSUNNY   95  60  31 SE20      29.90F
GUAD PASS      MOSUNNY   89  54  30 E10       30.10R
HOBBS          MOSUNNY   99  54  22 SE13      29.94F
MARFA          PTSUNNY   84  59  42 SW3       30.07F
MIDLAND AIRPK  SUNNY    100  53  20 SE14G22   29.91S
MIDLAND INTL   MOSUNNY   98  58  26 SE17      29.90S
ODESSA         SUNNY     99  54  22 SE13      29.91F
PECOS          PTSUNNY  103  56  20 E18       29.84S HX 102
PRESIDIO       FAIR      99  53  20 CALM      29.85F
SEMINOLE       SUNNY     99  51  20 SE10      29.93F
SNYDER         SUNNY     96  62  31 SE12      29.92F
WINK           MOSUNNY  102  54  20 SE9G23    29.85F HX 100
$$
...OTHER STATIONS IN TEXAS...

CITY           SKY/WX    TMP DP  RH WIND       PRES   REMARKS
ABILENE        SUNNY     96  64  34 SE14      29.91F
AMARILLO       SUNNY     92  62  36 SE12      29.97F
AUSTIN         MOSUNNY   96  66  37 S8        29.89S
BROWNSVILLE    SUNNY     89  74  60 S20G26    29.91R
CORPUS CHRISTI SUNNY     90  74  59 SE24      29.90S
DALLAS FTW     SUNNY     97  62  31 S15       29.89F
DEL RIO        SUNNY     98  66  34 SE9G20    29.82S HX 101
EL PASO        MOSUNNY   98  48  18 SW7       29.93F
HOUSTON INT    MOSUNNY   92  71  50 SE18      29.93S
LUBBOCK        MOSUNNY   95  60  31 SE18      29.94F
SAN ANGELO     MOSUNNY  100  58  24 S8        29.87F
SAN ANTONIO    MOSUNNY   97  65  34 SE14      29.89F
WACO           SUNNY     96  64  34 SE12      29.89F
WICHITA FALLS  NOT AVBL
$$
...OTHER LOCATIONS IN NEW MEXICO...

CITY           SKY/WX    TMP DP  RH WIND       PRES   REMARKS
ALAMAGORDO     CLOUDY    84  57  39 NE16      30.01R
ALBUQUERQUE    CLOUDY    91  43  18 SW5       30.06F
CANNON AFB     PTSUNNY   86  61  42 W20G31    30.03R
CLOVIS         MOSUNNY   90  57  33 S12       30.02R
HOLLOMAN AFB   RAIN      94  53  25 N14       29.99R
ROSWELL        CLOUDY    86  60  41 N20G28    29.96F THUNDER
RUIDOSO          N/A    N/A N/A N/A MISG        N/A
SANTA FE       CLOUDY    87  38  17 S9        30.15R
TRUTH OR CONSE LGT RAIN  71  60  68 CALM      30.08R
TUCUMCARI      TSTM      71  63  75 VRB5G18   30.10R
$$

USA.gov is the U.S. government's official web portal to all federal, state and local government web resources and services.